Flag for Germany Weather past 2 weeks in Bitterfeld-Wolfen, Saxony-Anhalt, Germany

64 °F

Passing clouds.

Feels Like: 64 °F
Forecast: 48 / 67 °F
Wind: 5 mph from Northwest

Location: Leipzig-Schkeuditz

Current Time: Oct 4, 2015 at 2:00:40 PM

Latest Report: Oct 4, 2015 at 1:20 PM

Visibility: N/A

Pressure: 30.01 "Hg

Humidity: 60%

Dew point: 50 °F

Location of Bitterfeld-WolfenLocation

Historic Weather in Bitterfeld-Wolfen — Graph


Bitterfeld-Wolfen temperature yesterday

Maximum temperature yesterday: 68 °F (at 3:20 PM)
Minimum temperature yesterday: 41 °F (at 5:50 AM)
Average temperature yesterday: 55 °F

Past Weeks' High & Low Weather Summary

High68 °F (Oct 3, 3:20 PM)100% (Sep 20, 12:50 AM)30.66 "Hg (Sep 20, 12:50 AM)
Low37 °F (Oct 1, 7:20 AM)42% (Oct 1, 4:50 PM)29.62 "Hg (Sep 22, 5:50 PM)
Average54 °F81%30.21 "Hg
* Reported Sep 19 12:20 PM — Oct 4 12:50 PM, Bitterfeld-Wolfen, Weather by CustomWeather, © 2015

Note: Actual official high and low records may vary slightly from our data, if they occured in-between our weather recording intervals... More about our weather records


Bitterfeld-Wolfen weather history for previous 24 hours

Time TempWeatherWind HumidityBarometerVisibility
12:50 PM
Sun, Oct 4
64 °FSunny.5 mph64%30.01 "Hg10 mi
12:20 PM64 °FPassing clouds.5 mph64%30.01 "HgN/A
11:50 AM63 °FSunny.5 mph68%30.01 "Hg10 mi
11:20 AM61 °FSunny.5 mph77%30.01 "Hg10 mi
10:50 AM61 °FSunny.8 mph77%30.01 "Hg10 mi
10:20 AM57 °FSunny.8 mph82%30.01 "Hg10 mi
9:50 AM55 °FSunny.6 mph88%30.01 "Hg10 mi
9:20 AM54 °FSunny.8 mph88%30.01 "Hg10 mi
8:50 AM54 °FSunny.8 mph88%29.98 "Hg10 mi
8:20 AM50 °FFog.6 mph94%29.98 "HgN/A
7:50 AM48 °FFog.7 mph94%29.98 "HgN/A
7:20 AM48 °FFog.7 mph94%29.98 "HgN/A
6:20 AM50 °FClear.8 mph88%29.98 "Hg10 mi
5:50 AM50 °FClear.7 mph94%29.95 "Hg10 mi
5:20 AM50 °FClear.7 mph88%29.95 "Hg10 mi
4:50 AM50 °FClear.7 mph88%29.95 "Hg10 mi
4:20 AM50 °FClear.7 mph88%29.95 "Hg10 mi
3:50 AM52 °FClear.8 mph88%29.95 "Hg10 mi
3:20 AM52 °FClear.7 mph88%29.95 "Hg10 mi
2:50 AM54 °FClear.7 mph82%29.95 "Hg10 mi
2:20 AM54 °FClear.8 mph88%29.95 "Hg10 mi
1:50 AM55 °FClear.8 mph82%29.95 "Hg10 mi
1:20 AM55 °FClear.7 mph82%29.95 "Hg10 mi
12:50 AM54 °FClear.7 mph88%29.95 "Hg10 mi
12:20 AM55 °FClear.7 mph82%29.95 "Hg10 mi
11:20 PM
Sat, Oct 3
55 °FClear.6 mph82%29.95 "Hg10 mi
10:50 PM57 °FClear.6 mph77%29.95 "Hg10 mi
10:20 PM55 °FClear.9 mph82%29.95 "Hg10 mi
9:50 PM57 °FClear.5 mph77%29.95 "Hg10 mi
9:20 PM57 °FClear.2 mph77%29.92 "Hg10 mi
8:50 PM57 °FClear.1 mph77%29.92 "Hg10 mi
8:20 PM61 °FClear.2 mph72%29.92 "Hg10 mi
7:50 PM63 °FClear.2 mph68%29.95 "Hg10 mi
7:20 PM63 °FSunny.3 mph68%29.95 "Hg10 mi
6:50 PM64 °FSunny.2 mph64%29.95 "Hg10 mi
6:20 PM66 °FSunny.3 mph64%29.95 "Hg10 mi
5:50 PM66 °FSunny.2 mph64%29.95 "Hg10 mi
5:20 PM68 °FSunny.2 mph53%29.95 "Hg10 mi
4:50 PM68 °FSunny.2 mph53%29.95 "Hg10 mi
4:20 PM68 °FSunny.3 mph53%29.95 "Hg10 mi
3:50 PM68 °FSunny.3 mph53%29.95 "Hg10 mi
3:20 PM68 °FSunny.3 mph49%29.95 "Hg10 mi
2:50 PM66 °FSunny.3 mph52%29.98 "Hg10 mi
2:20 PM66 °FSunny.3 mph56%29.98 "Hg10 mi
Weather by CustomWeather, © 2015

See weather overviewHow to use our weather pages